Regional Weather Roundup
Issued by NWS Burlington, VT

Home | Current Version | Previous Version | Text Only | Print | Product List | Glossary On
Versions: 1 2 3 4 5 6 7 8 9 10 11 12 13 14 15 16 17 18 19 20 21 22 23 24 25 26 27 28 29 30 31 32 33 34 35 36 37 38 39 40 41 42 43 44 45 46 47 48 49 50
000
ASUS41 KBTV 241730
RWRBTV
VERMONT REGIONAL WEATHER ROUNDUP
NATIONAL WEATHER SERVICE BURLINGTON VT
1200 PM EST MON NOV 24 2014

NOTE: "FAIR" INDICATES FEW OR NO CLOUDS BELOW 12,000 FEET WITH NO
SIGNIFICANT WEATHER AND/OR OBSTRUCTIONS TO VISIBILITY.

* THESE REPORTS ARE NOT UNDER NWS QUALITY CONTROL AND/OR DO NOT
  REPORT WEATHER SUCH AS PRECIPITATION AND FOG.

VTZ001>019-241800-
_____VERMONT_____


CITY           SKY/WX    TMP DP  RH WIND       PRES   REMARKS
BURLINGTON     PTSUNNY   63  56  78 S21G30    29.45F
MONTPELIER     MOSUNNY   57  32  38 S14G25    29.54F
ST. JOHNSBURY*   N/A     56  53  90 MISG      29.52F
LYNDONVILLE*   CLOUDY    55  52  90 SE12      29.54F
MIDDLEBURY*    PTSUNNY   66  58  77 S10G18    29.47F
RUTLAND*       CLOUDY    64  55  72 S10       29.51F
SPRINGFIELD    CLOUDY    57  54  89 VRB3      29.56F
HIGHGATE*      FAIR      64  56  76 S12G24    29.39F
NEWPORT*       DRIZZLE   50  49  97 S5        29.50F
BENNINGTON     CLOUDY    67  56  67 S20G29    29.55F
SUTTON*          N/A     52 N/A N/A MISG        N/A
GALLUP MILLS*    N/A     39 N/A N/A MISG        N/A
UNION VILLAGE*   N/A     54 N/A N/A MISG        N/A

_____LAKE CHAMPLAIN_____


CITY           SKY/WX    TMP DP  RH WIND       PRES   REMARKS
BURTON ISLAND*   N/A     55  52  88 S22         N/A
COLCHESTER RF*   N/A     54  54 100 S26         N/A
DIAMOND ISL*     N/A     59  57  94 SE18        N/A

$$

NYZ007-026>031-035-052-083-241800-
_____NORTHERN NEW YORK_____


CITY           SKY/WX    TMP DP  RH WIND       PRES   REMARKS
PLATTSBURGH    MOSUNNY   59  54  83 SE17      29.40F
SARANAC LAKE   SUNNY     62  53  72 SW18G26   29.39F
MASSENA        MOSUNNY   68  52  56 S23G40    29.30F
OGDENSBURG*    MOSUNNY   64  54  68 S18G24    29.29F
POTSDAM*       PTSUNNY   66  55  68 SW21G32   29.32F
STARK FALLS*     N/A     59 N/A N/A S15         N/A
WATERTOWN      CLOUDY    69  50  50 S14G24    29.31F
FT DRUM        PTSUNNY   66  52  61 S25G33    29.33F
ALBANY         PTSUNNY   67  59  75 S18G26    29.50F
GLENS FALLS    CLOUDY    62  58  86 SW6       29.51F

$$
NHZ002-005-011-241800-
_____NEW HAMPSHIRE_____


CITY           SKY/WX    TMP DP  RH WIND       PRES   REMARKS
LEBANON        CLOUDY    60  57  89 S9        29.55F
KEENE          CLOUDY    64  59  82 S16G26    29.58F
MT WASHINGTON  LGT RAIN  39  39 100 SW40G60     N/A  VSB 1/16
PLYMOUTH       CLOUDY    47  47 100 CALM      29.58F FOG
WHITEFIELD     CLOUDY    63  53  70 S13G30    29.54F

$$

_____REGIONAL QUEBEC LOCATIONS_____


CITY           SKY/WX    TMP DP  RH WIND       PRES   REMARKS
MONTREAL       PTSUNNY   57  54  88 SE15G22   29.33F
QUEBEC CITY    PTSUNNY   45  43  93 NE9       29.43F
SHERBROOKE     CLOUDY    54  50  87 SE3       29.48F

_____REGIONAL ONTARIO LOCATIONS_____


CITY           SKY/WX    TMP DP  RH WIND       PRES   REMARKS
OTTAWA         PTSUNNY   64  55  72 S14G30    29.25F

______KEY______
VSB  - VISIBILITY IN MILES
WCI  - WIND CHILL INDEX
HX   - HEAT INDEX
$$
NNNN



USA.gov is the U.S. government's official web portal to all federal, state and local government web resources and services.